EEA1407 MMMY-MGGT

Flight info

Callsign EEA1407
Flight time N/A
Altitude 37000
Route KERGA1A KERGA UJ81 ITBEN UJ38 CVM UJ15 TAM UT61 VER UA552 GABEN GABEN2C
Aircraft A310/H-SDFGHIM1RTUWXY/LB1

Departure

Time 2026-04-15 22:42
Airport Monterrey International Airport (MMMY)

Arrival

Time N/A
Airport La Aurora International Airport (MGGT)
Time Latitude Longitude Altitude Speed Heading
2026-04-15 22:14 25.77816 -100.11239 1336 ft 0 kts 211°
2026-04-15 22:18 25.77815 -100.11239 1336 ft 0 kts 211°
2026-04-15 22:31 25.77818 -100.11238 1336 ft 2 kts 211°
2026-04-15 22:32 25.77834 -100.11227 1339 ft 3 kts 211°
2026-04-15 22:32 25.77851 -100.11215 1339 ft 3 kts 211°
2026-04-15 22:32 25.77868 -100.11203 1342 ft 3 kts 216°
2026-04-15 22:32 25.77884 -100.11190 1342 ft 3 kts 216°
2026-04-15 22:33 25.77898 -100.11180 1340 ft 3 kts 171°
2026-04-15 22:33 25.77897 -100.11174 1339 ft 1 kts 121°
2026-04-15 22:33 25.77904 -100.11188 1338 ft 3 kts 121°
2026-04-15 22:33 25.77909 -100.11197 1347 ft 0 kts 121°
2026-04-15 22:36 25.77909 -100.11196 1347 ft 1 kts 121°
2026-04-15 22:36 25.77904 -100.11187 1338 ft 0 kts 120°
2026-04-15 22:37 25.77888 -100.11150 1339 ft 17 kts 112°
2026-04-15 22:37 25.77864 -100.10980 1336 ft 22 kts 95°
2026-04-15 22:37 25.77861 -100.10916 1336 ft 0 kts 90°
2026-04-15 22:37 25.77861 -100.10913 1336 ft 3 kts 90°
2026-04-15 22:38 25.77860 -100.10853 1336 ft 10 kts 96°
2026-04-15 22:38 25.77878 -100.10799 1336 ft 6 kts 25°
2026-04-15 22:38 25.77949 -100.10871 1340 ft 19 kts 298°
2026-04-15 22:38 25.78026 -100.11017 1336 ft 25 kts 300°
2026-04-15 22:39 25.78113 -100.11180 1336 ft 16 kts 300°
2026-04-15 22:39 25.78128 -100.11209 1336 ft 5 kts 301°
2026-04-15 22:39 25.78224 -100.11389 1336 ft 38 kts 301°
2026-04-15 22:39 25.78326 -100.11589 1336 ft 28 kts 291°
2026-04-15 22:40 25.78388 -100.11672 1336 ft 1 kts 11°
2026-04-15 22:40 25.78401 -100.11662 1336 ft 0 kts 43°
2026-04-15 22:40 25.78408 -100.11638 1336 ft 9 kts 88°
2026-04-15 22:41 25.78258 -100.11455 1336 ft 30 kts 116°
2026-04-15 22:41 25.78073 -100.11098 1336 ft 78 kts 121°
2026-04-15 22:41 25.77708 -100.10427 1337 ft 124 kts 121°
2026-04-15 22:41 25.77174 -100.09443 1419 ft 172 kts 121°
2026-04-15 22:42 25.76462 -100.08219 1757 ft 201 kts 124°
2026-04-15 22:42 25.75494 -100.06957 2270 ft 223 kts 141°
2026-04-15 22:42 25.74232 -100.05925 3008 ft 226 kts 142°
2026-04-15 22:42 25.72881 -100.05021 3474 ft 230 kts 160°
2026-04-15 22:43 25.71263 -100.04727 3643 ft 241 kts 180°
2026-04-15 22:43 25.69628 -100.04898 3906 ft 230 kts 182°
2026-04-15 22:43 25.68086 -100.05117 4219 ft 224 kts 190°
2026-04-15 22:43 25.66538 -100.05436 4823 ft 220 kts 189°
2026-04-15 22:44 25.65108 -100.05720 5800 ft 207 kts 189°
2026-04-15 22:44 25.63549 -100.05930 5892 ft 238 kts 186°
2026-04-15 22:44 25.61867 -100.06044 6429 ft 246 kts 184°
2026-04-15 22:44 25.60148 -100.06090 7086 ft 247 kts 182°
2026-04-15 22:45 25.58404 -100.06162 7725 ft 259 kts 186°
2026-04-15 22:45 25.56554 -100.06341 8426 ft 273 kts 184°
2026-04-15 22:45 25.54613 -100.06399 9264 ft 283 kts 180°
2026-04-15 22:45 25.52623 -100.06334 10170 ft 289 kts 178°
2026-04-15 22:46 25.50593 -100.06188 10611 ft 305 kts 177°
2026-04-15 22:46 25.48428 -100.05989 10900 ft 315 kts 176°
2026-04-15 22:46 25.46237 -100.05753 11379 ft 316 kts 176°
2026-04-15 22:46 25.44056 -100.05518 11395 ft 315 kts 176°
2026-04-15 22:47 25.41913 -100.05294 11219 ft 300 kts 176°
2026-04-15 22:47 25.39883 -100.05083 11162 ft 290 kts 176°
2026-04-15 22:47 25.37838 -100.04871 11140 ft 298 kts 176°
2026-04-15 22:47 25.35775 -100.04648 11090 ft 297 kts 176°
2026-04-15 22:48 25.33717 -100.04436 11102 ft 297 kts 176°
2026-04-15 22:48 25.31651 -100.04214 11093 ft 297 kts 176°
2026-04-15 22:48 25.29601 -100.04002 11105 ft 296 kts 176°
2026-04-15 22:48 25.27545 -100.03775 11108 ft 297 kts 176°
2026-04-15 22:49 25.25490 -100.03532 11114 ft 297 kts 176°
2026-04-15 22:49 25.23465 -100.03288 11116 ft 296 kts 176°
2026-04-15 22:49 25.21384 -100.03048 11118 ft 297 kts 177°
2026-04-15 22:49 25.19356 -100.02845 11116 ft 296 kts 177°
2026-04-15 22:50 25.17299 -100.02619 11115 ft 295 kts 177°
2026-04-15 22:50 25.15290 -100.02425 11072 ft 284 kts 180°
2026-04-15 22:50 25.13444 -100.02834 10485 ft 265 kts 232°
2026-04-15 22:50 25.12318 -100.03456 5605 ft 458 kts 212°
2026-04-15 22:51 25.11971 -100.05448 7017 ft 0 kts 289°
2026-04-15 22:51 25.12698 -100.07799 8825 ft 376 kts 288°
2026-04-15 22:51 25.13431 -100.10361 10263 ft 345 kts 285°
2026-04-15 22:51 25.14079 -100.12873 11046 ft 343 kts 284°
2026-04-15 22:52 25.14721 -100.15456 11470 ft 340 kts 283°
2026-04-15 22:52 25.15183 -100.17917 11618 ft 314 kts 281°
2026-04-15 22:52 25.16171 -100.19848 9607 ft 259 kts 295°
2026-04-15 22:52 25.18178 -100.21322 5811 ft 246 kts 28°
2026-04-15 22:53 25.19117 -100.19558 7578 ft 304 kts 60°
2026-04-15 22:53 25.20179 -100.17478 9130 ft 303 kts 59°
2026-04-15 22:53 25.21281 -100.15549 9568 ft 303 kts 56°
2026-04-15 22:53 25.22524 -100.13528 8935 ft 346 kts 56°
2026-04-15 22:54 25.23937 -100.11248 9587 ft 360 kts 55°
2026-04-15 22:54 25.25378 -100.08970 10873 ft 364 kts 54°
2026-04-15 22:54 25.26673 -100.06520 11851 ft 381 kts 76°
2026-04-15 22:54 25.25174 -100.06524 7594 ft 458 kts 205°
2026-04-15 22:55 25.22272 -100.07891 8999 ft 450 kts 204°
2026-04-15 22:55 25.19376 -100.09080 10382 ft 443 kts 201°
2026-04-15 22:55 25.16443 -100.10191 11319 ft 447 kts 198°
2026-04-15 22:55 25.13487 -100.11238 12111 ft 449 kts 200°
2026-04-15 22:56 25.10505 -100.12321 12902 ft 448 kts 199°
2026-04-15 22:56 25.07640 -100.13257 13504 ft 413 kts 198°
2026-04-15 22:56 25.04981 -100.14042 13661 ft 380 kts 197°
2026-04-15 22:56 25.02750 -100.15174 12823 ft 315 kts 219°
2026-04-15 22:57 25.01080 -100.16170 9251 ft 459 kts 217°
2026-04-15 22:57 24.98994 -100.18618 8082 ft 371 kts 208°
2026-04-15 22:57 24.97593 -100.19206 12146 ft 178 kts 200°
2026-04-15 22:57 24.96382 -100.19633 12057 ft 181 kts 199°
2026-04-15 22:58 24.95248 -100.19939 12113 ft 156 kts 198°
2026-04-15 22:58 24.94264 -100.20296 11745 ft 141 kts 225°
2026-04-15 22:58 24.93855 -100.21121 8377 ft 459 kts 219°
2026-04-15 22:58 24.92968 -100.23548 9791 ft 308 kts 245°
2026-04-15 22:59 24.92563 -100.23709 15612 ft 81 kts 78°
2026-04-15 22:59 24.93284 -100.22463 17508 ft 367 kts 60°
2026-04-15 22:59 24.94386 -100.20357 19816 ft 376 kts 59°
2026-04-15 22:59 24.96091 -100.17367 21275 ft 459 kts 58°